Balikesir, Turkey

8:19 PM +03 on December 13, 2017 (GMT +0300)
Balikesir Air Base

Weather History for LTBF - September, 2013

Change the Weather History Date:

Sunday, September 1, 2013

  Actual Average Record
Temperature  
Mean Temperature 72 °F -  
Max Temperature 82 °F 81 °F 104 °F (2007)
Min Temperature 61 °F 57 °F 50 °F (2001)
Cooling Degree Days 6    
Growing Degree Days 22 (Base 50)    
Moisture  
Dew Point 51 °F    
Average Humidity 48    
Maximum Humidity 72    
Minimum Humidity 19    
Precipitation  
Precipitation 0.00 in 0.03 in - ()
Sea Level Pressure  
Sea Level Pressure 30.02 in    
Wind  
Wind Speed 10 mph ()    
Max Wind Speed 23 mph    
Max Gust Speed 30 mph    
Visibility 6.1 miles    
Events      
Averages and records for this station are not official NWS values.
T = Trace of Precipitation, MM = Missing Value Source: Averaged Metar Reports

Daily Weather History Graph

Daily Weather History Graph

Search for Another Location

Airport or City:

Trip Planner

Search our weather history database for the weather conditions in past years. The results will help you decide how hot, cold, wet, or windy it might be!

Date:

Astronomy

Sep. 01, 2013 Rise Set
Actual Time 6:36 AM EEST 7:39 PM EEST
Civil Twilight 6:08 AM EEST 8:07 PM EEST
Nautical Twilight 5:35 AM EEST 8:39 PM EEST
Astronomical Twilight 5:01 AM EEST 9:13 PM EEST
Moon 2:41 AM EEST (9/1) 5:04 PM EEST (9/1)
Length of Visible Light 13h 58m
Length of Day
13h 03m
Waning Crescent, 16% of the Moon is Illuminated
Sep 1
Waning Crescent
Sep 5
New
Sep 12
First Quarter
Sep 19
Full
Sep 27
Last Quarter

Hourly Weather History & Observations

Time (EEST) Temp. Dew Point Humidity Pressure Visibility Wind Dir Wind Speed Gust Speed Precip Events Conditions
12:50 AM 68.0 °F 55.4 °F 64% 30.01 in - NNW 6.9 mph - N/A   Clear
1:50 AM 66.2 °F 55.4 °F 68% 30.01 in - North 6.9 mph - N/A   Clear
2:50 AM 66.2 °F 55.4 °F 68% 30.01 in - North 8.1 mph - N/A   Clear
3:50 AM 64.4 °F 53.6 °F 68% 30.01 in - North 8.1 mph - N/A   Clear
4:50 AM 64.4 °F 53.6 °F 68% 30.01 in - NNE 5.8 mph - N/A   Clear
5:50 AM 62.6 °F 51.8 °F 68% 30.01 in - Variable 1.2 mph - N/A   Clear
6:50 AM 62.6 °F 53.6 °F 72% 30.04 in - North 6.9 mph - N/A   Clear
7:50 AM 66.2 °F 53.6 °F 64% 30.04 in - ENE 3.5 mph - N/A   Clear
8:50 AM 69.8 °F 53.6 °F 56% 30.04 in - NE 11.5 mph - N/A   Clear
9:00 AM 71 °F 54 °F 44% 30.04 in 6 mi NE 11.5 mph - -  
9:50 AM 73.4 °F 51.8 °F 47% 30.04 in - NNE 17.3 mph - N/A   Clear
10:50 AM 77.0 °F 48.2 °F 36% 30.04 in - NNE 18.4 mph - N/A   Clear
11:50 AM 77.0 °F 48.2 °F 36% 30.04 in - NNE 23.0 mph - N/A   Clear
12:50 PM 80.6 °F 46.4 °F 30% 30.01 in - NNE 21.9 mph - N/A   Clear
1:50 PM 80.6 °F 48.2 °F 32% 30.01 in - NNE 17.3 mph - N/A   Clear
2:50 PM 82.4 °F 48.2 °F 30% 30.01 in 6.2 mi North 18.4 mph 29.9 mph N/A   Partly Cloudy
3:00 PM 82 °F 47 °F 19% 30.00 in 6 mi North 18.4 mph - -   Scattered Clouds
3:50 PM 82.4 °F 48.2 °F 30% 29.98 in 6.2 mi North 18.4 mph - N/A   Partly Cloudy
4:50 PM 80.6 °F 50.0 °F 34% 29.98 in - NNE 20.7 mph - N/A   Clear
5:50 PM 78.8 °F 50.0 °F 36% 30.01 in - NNE 21.9 mph - N/A   Clear
6:50 PM 77.0 °F 50.0 °F 39% 30.01 in - NNE 19.6 mph - N/A   Clear
7:50 PM 75.2 °F 48.2 °F 38% 30.01 in - North 16.1 mph - N/A   Clear
8:50 PM 73.4 °F 50.0 °F 44% 30.01 in - NNE 12.7 mph - N/A   Clear
9:00 PM 73 °F 49 °F 32% 30.02 in 6 mi NNE 12.7 mph - -  
9:50 PM 71.6 °F 51.8 °F 50% 30.04 in - NNE 8.1 mph - N/A   Clear
10:50 PM 69.8 °F 53.6 °F 56% 30.04 in - North 8.1 mph - N/A   Clear
11:50 PM 69.8 °F 53.6 °F 56% 30.04 in - North 6.9 mph - N/A   Clear